Time,TemperatureF,DewpointF,PressureIn,WindDirection,WindDirectionDegrees,WindSpeedMPH,WindSpeedGustMPH,Humidity,HourlyPrecipIn,Conditions,Clouds,dailyrainin,SoftwareType,DateUTC
2013-07-06 00:01:00,78.1,73.6,30.23,SSE,151,0.0,1.0,86,0.00,,SCT250,0.00,VWS V14.01,2013-07-06 04:01:00,
2013-07-06 00:06:00,77.9,73.4,30.23,SSE,167,0.0,3.0,86,0.00,,SCT250,0.00,VWS V14.01,2013-07-06 04:06:00,
2013-07-06 00:11:00,77.9,73.7,30.23,South,190,1.0,4.0,87,0.00,,SCT250,0.00,VWS V14.01,2013-07-06 04:11:00,
2013-07-06 00:16:00,77.8,73.6,30.22,SSE,163,1.0,2.0,87,0.00,,SCT250,0.00,VWS V14.01,2013-07-06 04:16:00,
2013-07-06 00:21:00,77.7,73.5,30.22,South,186,2.0,3.0,87,0.00,,SCT250,0.00,VWS V14.01,2013-07-06 04:21:00,
2013-07-06 00:26:00,77.6,73.4,30.22,ESE,117,1.0,4.0,87,0.00,,SCT250,0.00,VWS V14.01,2013-07-06 04:26:00,
2013-07-06 00:31:00,77.5,73.3,30.22,SSE,152,0.0,4.0,87,0.00,,SCT250,0.00,VWS V14.01,2013-07-06 04:31:00,
2013-07-06 00:36:00,77.4,73.6,30.22,ESE,120,0.0,2.0,88,0.00,,SCT250,0.00,VWS V14.01,2013-07-06 04:36:00,
2013-07-06 00:41:00,77.3,73.5,30.22,SSE,150,0.0,3.0,88,0.00,,SCT250,0.00,VWS V14.01,2013-07-06 04:41:00,
2013-07-06 00:46:00,77.2,73.4,30.22,ESE,113,0.0,2.0,88,0.00,,SCT250,0.00,VWS V14.01,2013-07-06 04:46:00,
2013-07-06 00:51:00,77.1,73.3,30.22,South,172,0.0,3.0,88,0.00,,SCT250,0.00,VWS V14.01,2013-07-06 04:51:00,
2013-07-06 00:56:00,77.1,73.3,30.22,WSW,238,0.0,1.0,88,0.00,,SCT250,0.00,VWS V14.01,2013-07-06 04:56:00,
2013-07-06 01:01:00,77.0,73.5,30.21,SSE,165,0.0,2.0,89,0.00,,FEW035,0.00,VWS V14.01,2013-07-06 05:01:00,
2013-07-06 01:06:00,76.9,73.4,30.21,SE,144,1.0,2.0,89,0.00,,FEW035,0.00,VWS V14.01,2013-07-06 05:06:00,
2013-07-06 01:11:00,76.8,73.3,30.21,South,188,1.0,3.0,89,0.00,,FEW035,0.00,VWS V14.01,2013-07-06 05:11:00,
2013-07-06 01:16:00,76.7,73.2,30.21,ESE,119,1.0,2.0,89,0.00,,FEW035,0.00,VWS V14.01,2013-07-06 05:16:00,
2013-07-06 01:21:00,76.7,73.2,30.21,ENE,66,0.0,3.0,89,0.00,,FEW035,0.00,VWS V14.01,2013-07-06 05:21:00,
2013-07-06 01:26:00,76.5,73.3,30.21,SE,129,0.0,1.0,90,0.00,,FEW035,0.00,VWS V14.01,2013-07-06 05:26:00,
2013-07-06 01:31:00,76.3,73.2,30.21,ESE,108,2.0,3.0,90,0.00,,FEW035,0.00,VWS V14.01,2013-07-06 05:31:00,
2013-07-06 01:36:00,76.2,73.1,30.21,SSW,200,0.0,2.0,90,0.00,,FEW035,0.00,VWS V14.01,2013-07-06 05:36:00,
2013-07-06 01:41:00,76.2,73.1,30.21,SE,140,0.0,2.0,90,0.00,,FEW035,0.00,VWS V14.01,2013-07-06 05:41:00,
2013-07-06 01:46:00,76.1,73.0,30.21,SE,140,0.0,0.0,90,0.00,,FEW035,0.00,VWS V14.01,2013-07-06 05:46:00,
2013-07-06 01:51:00,76.0,73.2,30.21,SE,141,0.0,2.0,91,0.00,,FEW035,0.00,VWS V14.01,2013-07-06 05:51:00,
2013-07-06 01:56:00,75.9,73.1,30.20,ESE,113,0.0,1.0,91,0.00,,FEW035,0.00,VWS V14.01,2013-07-06 05:56:00,
2013-07-06 02:01:00,75.7,72.9,30.20,ESE,113,0.0,1.0,91,0.00,,FEW025,0.00,VWS V14.01,2013-07-06 06:01:00,
2013-07-06 02:06:00,75.5,73.0,30.20,ESE,113,0.0,1.0,92,0.00,,FEW025,0.00,VWS V14.01,2013-07-06 06:06:00,
2013-07-06 02:11:00,75.4,72.9,30.20,ESE,113,0.0,1.0,92,0.00,,FEW025,0.00,VWS V14.01,2013-07-06 06:11:00,
2013-07-06 02:16:00,75.2,72.7,30.20,ESE,115,0.0,2.0,92,0.00,,FEW025,0.00,VWS V14.01,2013-07-06 06:16:00,
2013-07-06 02:21:00,75.1,72.9,30.20,ESE,105,1.0,3.0,93,0.00,,FEW025,0.00,VWS V14.01,2013-07-06 06:21:00,
2013-07-06 02:26:00,75.1,72.9,30.20,SE,134,1.0,1.0,93,0.00,,FEW025,0.00,VWS V14.01,2013-07-06 06:26:00,
2013-07-06 02:31:00,75.0,72.8,30.20,East,81,0.0,1.0,93,0.00,,FEW025,0.00,VWS V14.01,2013-07-06 06:31:00,
2013-07-06 02:36:00,74.9,72.7,30.20,East,95,0.0,1.0,93,0.00,,FEW025,0.00,VWS V14.01,2013-07-06 06:36:00,
2013-07-06 02:41:00,74.8,72.6,30.20,ESE,107,0.0,2.0,93,0.00,,FEW025,0.00,VWS V14.01,2013-07-06 06:41:00,
2013-07-06 02:46:00,74.7,72.6,30.20,ESE,109,0.0,2.0,93,0.00,,FEW025,0.00,VWS V14.01,2013-07-06 06:46:00,
2013-07-06 02:51:00,74.7,72.6,30.20,SSW,209,0.0,1.0,93,0.00,,FEW025,0.00,VWS V14.01,2013-07-06 06:51:00,
2013-07-06 02:56:00,74.6,72.8,30.20,SSE,152,0.0,0.0,94,0.00,,FEW025,0.00,VWS V14.01,2013-07-06 06:56:00,
2013-07-06 03:01:00,74.6,72.8,30.20,SSE,153,0.0,0.0,94,0.00,,FEW012,0.00,VWS V14.01,2013-07-06 07:01:00,
2013-07-06 03:06:00,74.5,72.7,30.20,SSE,153,0.0,0.0,94,0.00,,FEW012,0.00,VWS V14.01,2013-07-06 07:06:00,
2013-07-06 03:11:00,74.4,72.6,30.20,SSE,152,0.0,0.0,94,0.00,,FEW012,0.00,VWS V14.01,2013-07-06 07:11:00,
2013-07-06 03:16:00,74.4,72.6,30.20,SSE,153,0.0,0.0,94,0.00,,FEW012,0.00,VWS V14.01,2013-07-06 07:16:00,
2013-07-06 03:21:00,74.2,72.4,30.20,SSE,153,0.0,0.0,94,0.00,,FEW012,0.00,VWS V14.01,2013-07-06 07:21:00,
2013-07-06 03:26:00,74.2,72.4,30.20,SSE,159,1.0,3.0,94,0.00,,FEW012,0.00,VWS V14.01,2013-07-06 07:26:00,
2013-07-06 03:31:00,74.2,72.4,30.20,SSW,192,0.0,1.0,94,0.00,,FEW012,0.00,VWS V14.01,2013-07-06 07:31:00,
2013-07-06 03:36:00,74.1,72.3,30.20,SSW,193,0.0,0.0,94,0.00,,FEW012,0.00,VWS V14.01,2013-07-06 07:36:00,
2013-07-06 03:41:00,74.1,72.3,30.20,SSW,192,0.0,0.0,94,0.00,,FEW012,0.00,VWS V14.01,2013-07-06 07:41:00,
2013-07-06 03:46:00,74.1,72.3,30.19,SSW,192,0.0,0.0,94,0.00,,FEW012,0.00,VWS V14.01,2013-07-06 07:46:00,
2013-07-06 03:51:00,74.0,72.2,30.19,SSW,192,0.0,0.0,94,0.00,,FEW012,0.00,VWS V14.01,2013-07-06 07:51:00,
2013-07-06 03:56:00,73.9,72.4,30.19,SSW,192,0.0,0.0,95,0.00,,FEW012,0.00,VWS V14.01,2013-07-06 07:56:00,
2013-07-06 04:01:00,73.8,72.3,30.19,SSW,193,0.0,0.0,95,0.00,,OVC008,0.00,VWS V14.01,2013-07-06 08:01:00,
2013-07-06 04:06:00,73.7,72.2,30.19,SSW,193,0.0,0.0,95,0.00,,OVC008,0.00,VWS V14.01,2013-07-06 08:06:00,
2013-07-06 04:11:00,73.7,72.2,30.19,SSW,193,0.0,0.0,95,0.00,,OVC008,0.00,VWS V14.01,2013-07-06 08:11:00,
2013-07-06 04:16:00,73.6,72.1,30.20,South,185,0.0,0.0,95,0.00,,OVC008,0.00,VWS V14.01,2013-07-06 08:16:00,
2013-07-06 04:21:00,73.5,72.0,30.20,South,185,0.0,0.0,95,0.00,,OVC008,0.00,VWS V14.01,2013-07-06 08:21:00,
2013-07-06 04:26:00,73.4,71.9,30.20,South,185,0.0,0.0,95,0.00,,OVC008,0.00,VWS V14.01,2013-07-06 08:26:00,
2013-07-06 04:31:00,73.4,71.9,30.20,South,185,0.0,0.0,95,0.00,,OVC008,0.00,VWS V14.01,2013-07-06 08:31:00,
2013-07-06 04:36:00,73.5,72.3,30.21,South,185,0.0,0.0,96,0.00,,OVC008,0.00,VWS V14.01,2013-07-06 08:36:00,
2013-07-06 04:41:00,73.5,72.3,30.21,SSE,153,0.0,1.0,96,0.00,,OVC008,0.00,VWS V14.01,2013-07-06 08:41:00,
2013-07-06 04:46:00,73.5,72.3,30.20,ESE,104,0.0,1.0,96,0.00,,OVC008,0.00,VWS V14.01,2013-07-06 08:46:00,
2013-07-06 04:51:00,73.6,72.4,30.21,SSW,203,0.0,1.0,96,0.00,,OVC008,0.00,VWS V14.01,2013-07-06 08:51:00,
2013-07-06 04:56:00,73.6,72.4,30.21,SSW,203,0.0,0.0,96,0.00,,OVC008,0.00,VWS V14.01,2013-07-06 08:56:00,
2013-07-06 05:01:00,73.7,72.5,30.21,ESE,120,0.0,0.0,96,0.00,,OVC007,0.00,VWS V14.01,2013-07-06 09:01:00,
2013-07-06 05:06:00,73.8,72.6,30.21,SW,233,1.0,1.0,96,0.00,,OVC007,0.00,VWS V14.01,2013-07-06 09:06:00,
2013-07-06 05:11:00,73.9,72.7,30.20,SE,127,0.0,2.0,96,0.00,,OVC007,0.00,VWS V14.01,2013-07-06 09:11:00,
2013-07-06 05:16:00,73.9,72.4,30.21,SSW,195,0.0,2.0,95,0.00,,OVC007,0.00,VWS V14.01,2013-07-06 09:16:00,
2013-07-06 05:21:00,74.0,72.5,30.20,ESE,106,0.0,1.0,95,0.00,,OVC007,0.00,VWS V14.01,2013-07-06 09:21:00,
2013-07-06 05:26:00,74.0,72.5,30.21,SE,144,0.0,1.0,95,0.00,,OVC007,0.00,VWS V14.01,2013-07-06 09:26:00,
2013-07-06 05:31:00,74.1,72.6,30.21,ESE,111,0.0,2.0,95,0.00,,OVC007,0.00,VWS V14.01,2013-07-06 09:31:00,
2013-07-06 05:36:00,74.1,72.6,30.21,ESE,122,0.0,1.0,95,0.00,,OVC007,0.00,VWS V14.01,2013-07-06 09:36:00,
2013-07-06 05:41:00,74.1,72.6,30.21,ESE,108,1.0,3.0,95,0.00,,OVC007,0.00,VWS V14.01,2013-07-06 09:41:00,
2013-07-06 05:46:00,74.1,72.6,30.21,SE,131,0.0,2.0,95,0.00,,OVC007,0.00,VWS V14.01,2013-07-06 09:46:00,
2013-07-06 05:51:00,74.2,72.7,30.21,SE,128,0.0,2.0,95,0.00,,OVC007,0.00,VWS V14.01,2013-07-06 09:51:00,
2013-07-06 05:56:00,74.2,72.7,30.21,East,94,0.0,3.0,95,0.00,,OVC007,0.00,VWS V14.01,2013-07-06 09:56:00,
2013-07-06 06:01:00,74.2,72.7,30.22,SSE,147,0.0,1.0,95,0.00,,BKN019,0.00,VWS V14.01,2013-07-06 10:01:00,
2013-07-06 06:06:00,74.2,72.7,30.22,SSE,147,0.0,0.0,95,0.00,,BKN019,0.00,VWS V14.01,2013-07-06 10:06:00,
2013-07-06 06:11:00,74.2,72.7,30.22,SSE,147,0.0,0.0,95,0.00,,BKN019,0.00,VWS V14.01,2013-07-06 10:11:00,
2013-07-06 06:16:00,74.1,72.6,30.22,ESE,114,0.0,1.0,95,0.00,,BKN019,0.00,VWS V14.01,2013-07-06 10:16:00,
2013-07-06 06:21:00,74.1,72.6,30.22,SE,130,0.0,2.0,95,0.00,,BKN019,0.00,VWS V14.01,2013-07-06 10:21:00,
2013-07-06 06:26:00,74.1,72.6,30.22,SSE,150,0.0,1.0,95,0.00,,BKN019,0.00,VWS V14.01,2013-07-06 10:26:00,
2013-07-06 06:31:00,74.0,72.5,30.22,SE,144,1.0,1.0,95,0.00,,BKN019,0.00,VWS V14.01,2013-07-06 10:31:00,
2013-07-06 06:36:00,73.9,72.4,30.22,SE,141,0.0,1.0,95,0.00,,BKN019,0.00,VWS V14.01,2013-07-06 10:36:00,
2013-07-06 06:41:00,73.9,72.4,30.22,ESE,120,1.0,1.0,95,0.00,,BKN019,0.00,VWS V14.01,2013-07-06 10:41:00,
2013-07-06 06:46:00,73.8,72.6,30.23,ESE,104,0.0,1.0,96,0.00,,BKN019,0.00,VWS V14.01,2013-07-06 10:46:00,
2013-07-06 06:51:00,73.9,72.7,30.23,SSE,155,1.0,1.0,96,0.00,,BKN019,0.00,VWS V14.01,2013-07-06 10:51:00,
2013-07-06 06:56:00,74.0,72.8,30.23,SSE,159,0.0,1.0,96,0.00,,BKN019,0.00,VWS V14.01,2013-07-06 10:56:00,
2013-07-06 07:01:00,74.0,72.5,30.23,SSE,156,0.0,1.0,95,0.00,,BKN019,0.00,VWS V14.01,2013-07-06 11:01:00,
2013-07-06 07:06:00,74.1,72.6,30.23,SSE,156,0.0,0.0,95,0.00,,BKN019,0.00,VWS V14.01,2013-07-06 11:06:00,
2013-07-06 07:11:00,74.1,72.6,30.23,SSE,157,0.0,0.0,95,0.00,,BKN019,0.00,VWS V14.01,2013-07-06 11:11:00,
2013-07-06 07:16:00,74.2,72.7,30.23,SSW,211,0.0,1.0,95,0.00,,BKN019,0.00,VWS V14.01,2013-07-06 11:16:00,
2013-07-06 07:21:00,74.4,72.9,30.23,SE,144,0.0,2.0,95,0.00,,BKN019,0.00,VWS V14.01,2013-07-06 11:21:00,
2013-07-06 07:26:00,74.6,73.1,30.23,WSW,243,0.0,1.0,95,0.00,,BKN019,0.00,VWS V14.01,2013-07-06 11:26:00,
2013-07-06 07:31:00,74.9,73.1,30.23,ESE,113,0.0,2.0,94,0.00,,BKN019,0.00,VWS V14.01,2013-07-06 11:31:00,
2013-07-06 07:36:00,75.0,72.8,30.23,SW,232,0.0,2.0,93,0.00,,BKN019,0.00,VWS V14.01,2013-07-06 11:36:00,
2013-07-06 07:41:00,75.3,73.1,30.24,SSW,209,1.0,1.0,93,0.00,,BKN019,0.00,VWS V14.01,2013-07-06 11:41:00,
2013-07-06 07:46:00,75.5,73.3,30.24,South,173,0.0,1.0,93,0.00,,BKN019,0.00,VWS V14.01,2013-07-06 11:46:00,
2013-07-06 07:51:00,75.6,73.1,30.24,ESE,105,0.0,2.0,92,0.00,,BKN013,0.00,VWS V14.01,2013-07-06 11:51:00,
2013-07-06 07:56:00,75.7,73.2,30.24,ESE,105,0.0,1.0,92,0.00,,BKN013,0.00,VWS V14.01,2013-07-06 11:56:00,
2013-07-06 08:01:00,75.9,73.4,30.23,ESE,106,0.0,0.0,92,0.00,,BKN013,0.00,VWS V14.01,2013-07-06 12:01:00,
2013-07-06 08:06:00,76.0,73.5,30.24,SE,131,0.0,1.0,92,0.00,,BKN013,0.00,VWS V14.01,2013-07-06 12:06:00,
2013-07-06 08:11:00,76.1,73.6,30.24,SSW,192,1.0,1.0,92,0.00,,BKN013,0.00,VWS V14.01,2013-07-06 12:11:00,
2013-07-06 08:16:00,76.3,73.5,30.24,East,97,2.0,3.0,91,0.00,,BKN013,0.00,VWS V14.01,2013-07-06 12:16:00,
2013-07-06 08:21:00,76.4,73.6,30.24,ESE,108,0.0,2.0,91,0.00,,BKN013,0.00,VWS V14.01,2013-07-06 12:21:00,
2013-07-06 08:26:00,76.5,73.3,30.24,East,95,2.0,3.0,90,0.00,,BKN013,0.00,VWS V14.01,2013-07-06 12:26:00,
2013-07-06 08:31:00,76.8,73.7,30.24,WSW,243,0.0,4.0,90,0.00,,BKN013,0.00,VWS V14.01,2013-07-06 12:31:00,
2013-07-06 08:36:00,77.1,73.6,30.24,SW,224,1.0,3.0,89,0.00,,BKN016,0.00,VWS V14.01,2013-07-06 12:36:00,
2013-07-06 08:41:00,77.4,73.9,30.24,SE,129,1.0,1.0,89,0.00,,BKN016,0.00,VWS V14.01,2013-07-06 12:41:00,
2013-07-06 08:46:00,77.6,73.8,30.24,SE,132,0.0,5.0,88,0.00,,BKN016,0.00,VWS V14.01,2013-07-06 12:46:00,
2013-07-06 08:51:00,77.8,73.6,30.24,ESE,105,2.0,4.0,87,0.00,,BKN016,0.00,VWS V14.01,2013-07-06 12:51:00,
2013-07-06 08:56:00,77.8,73.3,30.24,SE,128,0.0,5.0,86,0.00,,BKN016,0.00,VWS V14.01,2013-07-06 12:56:00,
2013-07-06 09:01:00,78.0,73.5,30.24,ESE,114,3.0,5.0,86,0.00,,BKN031,0.00,VWS V14.01,2013-07-06 13:01:00,
2013-07-06 09:06:00,78.4,73.5,30.24,SE,136,0.0,3.0,85,0.00,,BKN031,0.00,VWS V14.01,2013-07-06 13:06:00,
2013-07-06 09:11:00,78.8,73.9,30.24,WSW,250,2.0,3.0,85,0.00,,BKN031,0.00,VWS V14.01,2013-07-06 13:11:00,
2013-07-06 09:16:00,79.1,73.5,30.24,WSW,237,2.0,3.0,83,0.00,,BKN031,0.00,VWS V14.01,2013-07-06 13:16:00,
2013-07-06 09:21:00,79.4,73.8,30.24,ESE,106,3.0,3.0,83,0.00,,BKN031,0.00,VWS V14.01,2013-07-06 13:21:00,
2013-07-06 09:26:00,79.6,73.6,30.24,ESE,121,1.0,4.0,82,0.00,,BKN031,0.00,VWS V14.01,2013-07-06 13:26:00,
2013-07-06 09:31:00,79.8,73.8,30.24,SW,220,0.0,4.0,82,0.00,,BKN031,0.00,VWS V14.01,2013-07-06 13:31:00,
2013-07-06 09:36:00,80.2,73.8,30.24,WSW,254,1.0,6.0,81,0.00,,BKN031,0.00,VWS V14.01,2013-07-06 13:36:00,
2013-07-06 09:41:00,80.5,74.9,30.24,SW,235,1.0,3.0,83,0.00,,BKN031,0.00,VWS V14.01,2013-07-06 13:41:00,
2013-07-06 09:46:00,80.8,74.4,30.24,WSW,241,2.0,3.0,81,0.00,,BKN031,0.00,VWS V14.01,2013-07-06 13:46:00,
2013-07-06 09:51:00,81.2,74.8,30.23,SE,129,0.0,2.0,81,0.00,,BKN031,0.00,VWS V14.01,2013-07-06 13:51:00,
2013-07-06 09:56:00,81.0,74.6,30.23,West,262,2.0,5.0,81,0.00,,BKN031,0.00,VWS V14.01,2013-07-06 13:56:00,
2013-07-06 10:01:00,81.0,73.9,30.23,SE,134,1.0,4.0,79,0.00,,BKN027,0.00,VWS V14.01,2013-07-06 14:01:00,
2013-07-06 10:06:00,81.5,73.6,30.23,East,98,0.0,4.0,77,0.00,,BKN027,0.00,VWS V14.01,2013-07-06 14:06:00,
2013-07-06 10:11:00,81.3,73.8,30.23,SW,232,2.0,3.0,78,0.00,,BKN027,0.00,VWS V14.01,2013-07-06 14:11:00,
2013-07-06 10:16:00,81.1,74.3,30.23,SW,224,0.0,2.0,80,0.00,,BKN027,0.00,VWS V14.01,2013-07-06 14:16:00,
2013-07-06 10:21:00,81.0,74.6,30.23,SW,224,0.0,0.0,81,0.00,,BKN027,0.00,VWS V14.01,2013-07-06 14:21:00,
2013-07-06 10:26:00,81.0,74.6,30.23,SW,224,0.0,0.0,81,0.00,,BKN027,0.00,VWS V14.01,2013-07-06 14:26:00,
2013-07-06 10:31:00,81.1,74.3,30.23,WSW,245,0.0,2.0,80,0.00,,BKN027,0.00,VWS V14.01,2013-07-06 14:31:00,
2013-07-06 10:36:00,81.1,74.3,30.23,WSW,244,0.0,2.0,80,0.00,,BKN027,0.00,VWS V14.01,2013-07-06 14:36:00,
2013-07-06 10:41:00,81.2,74.8,30.23,WSW,244,0.0,1.0,81,0.00,,BKN027,0.00,VWS V14.01,2013-07-06 14:41:00,
2013-07-06 10:46:00,81.5,74.4,30.23,East,101,3.0,3.0,79,0.00,,BKN027,0.00,VWS V14.01,2013-07-06 14:46:00,
2013-07-06 10:51:00,82.0,74.1,30.23,West,259,0.0,3.0,77,0.00,,BKN027,0.00,VWS V14.01,2013-07-06 14:51:00,
2013-07-06 10:56:00,82.8,73.3,30.23,East,79,0.0,6.0,73,0.00,,BKN027,0.00,VWS V14.01,2013-07-06 14:56:00,
2013-07-06 11:01:00,82.9,72.5,30.23,SE,129,3.0,7.0,71,0.00,,BKN024,0.00,VWS V14.01,2013-07-06 15:01:00,
2013-07-06 11:06:00,82.9,72.9,30.23,WSW,252,1.0,4.0,72,0.00,,BKN024,0.00,VWS V14.01,2013-07-06 15:06:00,
2013-07-06 11:11:00,83.3,74.2,30.23,WNW,289,0.0,2.0,74,0.00,,BKN024,0.00,VWS V14.01,2013-07-06 15:11:00,
2013-07-06 11:16:00,83.6,73.2,30.23,West,271,2.0,4.0,71,0.00,,BKN024,0.00,VWS V14.01,2013-07-06 15:16:00,
2013-07-06 11:21:00,83.2,73.7,30.23,West,273,2.0,7.0,73,0.00,,BKN024,0.00,VWS V14.01,2013-07-06 15:21:00,
2013-07-06 11:26:00,83.0,73.9,30.23,West,275,3.0,3.0,74,0.00,,BKN024,0.00,VWS V14.01,2013-07-06 15:26:00,
2013-07-06 11:31:00,83.7,74.1,30.23,SE,135,1.0,4.0,73,0.00,,BKN024,0.00,VWS V14.01,2013-07-06 15:31:00,
2013-07-06 11:36:00,84.0,75.2,30.23,SW,218,1.0,3.0,75,0.00,,BKN024,0.00,VWS V14.01,2013-07-06 15:36:00,
2013-07-06 11:41:00,84.6,74.6,30.23,SE,127,2.0,3.0,72,0.00,,BKN024,0.00,VWS V14.01,2013-07-06 15:41:00,
2013-07-06 11:46:00,84.5,74.1,30.23,East,96,5.0,5.0,71,0.00,,BKN024,0.00,VWS V14.01,2013-07-06 15:46:00,
2013-07-06 11:51:00,83.8,74.2,30.23,SE,138,0.0,6.0,73,0.00,,BKN024,0.00,VWS V14.01,2013-07-06 15:51:00,
2013-07-06 11:56:00,84.2,73.8,30.23,WSW,238,4.0,4.0,71,0.00,,BKN024,0.00,VWS V14.01,2013-07-06 15:56:00,
2013-07-06 12:01:00,84.1,73.7,30.23,SE,128,1.0,4.0,71,0.00,,BKN029,0.00,VWS V14.01,2013-07-06 16:01:00,
2013-07-06 12:16:00,84.8,74.4,30.22,ESE,115,0.0,2.0,71,0.00,,BKN029,0.00,VWS V14.01,2013-07-06 16:16:00,
2013-07-06 12:21:00,85.3,73.6,30.22,ESE,122,2.0,5.0,68,0.00,,BKN029,0.00,VWS V14.01,2013-07-06 16:21:00,
2013-07-06 12:26:00,85.3,73.1,30.22,SW,224,8.0,8.0,67,0.00,,BKN029,0.00,VWS V14.01,2013-07-06 16:26:00,
2013-07-06 12:31:00,85.1,73.4,30.22,SSE,155,2.0,8.0,68,0.00,,BKN029,0.00,VWS V14.01,2013-07-06 16:31:00,
2013-07-06 12:46:00,83.7,74.5,30.21,West,279,0.0,4.0,74,0.00,,BKN150,0.00,VWS V14.01,2013-07-06 16:46:00,
2013-07-06 12:56:00,85.9,72.8,30.21,SE,125,0.0,4.0,65,0.00,,BKN150,0.00,VWS V14.01,2013-07-06 16:56:00,
2013-07-06 13:01:00,86.7,72.1,30.21,ESE,109,2.0,4.0,62,0.00,,BKN150,0.00,VWS V14.01,2013-07-06 17:01:00,
2013-07-06 13:16:00,87.0,72.4,30.21,East,99,1.0,7.0,62,0.00,,BKN150,0.00,VWS V14.01,2013-07-06 17:16:00,
2013-07-06 13:21:00,86.8,72.7,30.20,SE,135,0.0,6.0,63,0.00,,BKN150,0.00,VWS V14.01,2013-07-06 17:21:00,
2013-07-06 13:26:00,86.5,72.9,30.20,ESE,103,1.0,6.0,64,0.00,,BKN150,0.00,VWS V14.01,2013-07-06 17:26:00,
2013-07-06 13:31:00,86.7,73.5,30.20,East,94,3.0,4.0,65,0.00,,BKN150,0.00,VWS V14.01,2013-07-06 17:31:00,
2013-07-06 13:36:00,87.4,71.8,30.20,SW,231,1.0,5.0,60,0.00,,BKN150,0.00,VWS V14.01,2013-07-06 17:36:00,
2013-07-06 13:51:00,87.1,73.4,30.19,SE,136,3.0,4.0,64,0.00,,BKN150,0.00,VWS V14.01,2013-07-06 17:51:00,
2013-07-06 13:56:00,87.0,71.4,30.19,ESE,115,1.0,7.0,60,0.00,,BKN150,0.00,VWS V14.01,2013-07-06 17:56:00,
2013-07-06 14:01:00,87.5,71.9,30.19,WSW,254,1.0,4.0,60,0.00,,BKN150,0.00,VWS V14.01,2013-07-06 18:01:00,
2013-07-06 14:11:00,87.4,71.8,30.18,SSE,155,5.0,7.0,60,0.00,,BKN150,0.00,VWS V14.01,2013-07-06 18:11:00,
2013-07-06 14:26:00,87.4,73.7,30.18,East,81,1.0,6.0,64,0.00,,BKN150,0.00,VWS V14.01,2013-07-06 18:26:00,
2013-07-06 14:31:00,88.1,73.9,30.17,ESE,113,4.0,4.0,63,0.00,,BKN150,0.00,VWS V14.01,2013-07-06 18:31:00,
2013-07-06 14:41:00,86.7,73.5,30.18,ESE,113,0.0,5.0,65,0.00,,BKN150,0.00,VWS V14.01,2013-07-06 18:41:00,
2013-07-06 14:51:00,86.4,73.2,30.17,ESE,110,1.0,2.0,65,0.00,,BKN150,0.00,VWS V14.01,2013-07-06 18:51:00,
2013-07-06 15:01:00,86.6,73.0,30.17,SE,145,1.0,5.0,64,0.00,,-RA,0.00,VWS V14.01,2013-07-06 19:01:00,
2013-07-06 15:11:00,86.5,73.3,30.16,East,84,0.0,4.0,65,0.00,,-RA,0.00,VWS V14.01,2013-07-06 19:11:00,
2013-07-06 15:21:00,86.5,73.3,30.16,ESE,120,2.0,5.0,65,0.00,,-RA,0.00,VWS V14.01,2013-07-06 19:21:00,
2013-07-06 15:31:00,86.4,73.2,30.16,SE,124,2.0,3.0,65,0.00,,-RA,0.00,VWS V14.01,2013-07-06 19:31:00,
2013-07-06 15:36:00,86.3,73.6,30.15,ESE,102,1.0,2.0,66,0.00,,-RA,0.00,VWS V14.01,2013-07-06 19:36:00,
2013-07-06 15:46:00,85.9,72.8,30.15,WNW,284,1.0,3.0,65,0.00,,-RA,0.00,VWS V14.01,2013-07-06 19:46:00,
2013-07-06 15:51:00,86.0,72.9,30.15,SE,126,0.0,2.0,65,0.00,,-RA,0.00,VWS V14.01,2013-07-06 19:51:00,
2013-07-06 15:56:00,85.9,73.2,30.15,WSW,245,1.0,3.0,66,0.00,,-RA,0.00,VWS V14.01,2013-07-06 19:56:00,
2013-07-06 16:01:00,85.8,73.6,30.15,East,94,2.0,4.0,67,0.00,,SCT150,0.00,VWS V14.01,2013-07-06 20:01:00,
2013-07-06 16:21:00,87.3,76.8,30.14,WSW,238,0.0,1.0,71,0.00,,SCT150,0.00,VWS V14.01,2013-07-06 20:21:00,
2013-07-06 16:31:00,87.0,76.0,30.14,WSW,238,0.0,0.0,70,0.00,,SCT150,0.00,VWS V14.01,2013-07-06 20:31:00,
2013-07-06 16:36:00,86.9,75.9,30.13,WSW,238,0.0,1.0,70,0.00,,SCT150,0.00,VWS V14.01,2013-07-06 20:36:00,
2013-07-06 16:41:00,86.8,75.4,30.13,SW,233,0.0,1.0,69,0.00,,SCT150,0.00,VWS V14.01,2013-07-06 20:41:00,
2013-07-06 16:51:00,86.6,74.8,30.13,ESE,117,1.0,4.0,68,0.00,,SCT150,0.00,VWS V14.01,2013-07-06 20:51:00,
2013-07-06 16:56:00,87.0,75.6,30.13,ESE,123,0.0,1.0,69,0.00,,SCT150,0.00,VWS V14.01,2013-07-06 20:56:00,
2013-07-06 17:01:00,88.0,74.8,30.12,NE,56,0.0,1.0,65,0.00,,BKN150,0.00,VWS V14.01,2013-07-06 21:01:00,
2013-07-06 17:06:00,88.5,75.7,30.12,SE,146,1.0,1.0,66,0.00,,BKN150,0.00,VWS V14.01,2013-07-06 21:06:00,
2013-07-06 17:16:00,88.6,73.4,30.13,ENE,73,2.0,4.0,61,0.00,,BKN150,0.00,VWS V14.01,2013-07-06 21:16:00,
2013-07-06 17:31:00,87.8,72.7,30.12,South,179,0.0,5.0,61,0.00,,BKN150,0.00,VWS V14.01,2013-07-06 21:31:00,
2013-07-06 17:46:00,87.1,73.9,30.12,SE,135,0.0,2.0,65,0.00,,BKN150,0.00,VWS V14.01,2013-07-06 21:46:00,
2013-07-06 17:51:00,87.2,73.6,30.12,ESE,108,2.0,2.0,64,0.00,,BKN150,0.00,VWS V14.01,2013-07-06 21:51:00,
2013-07-06 17:56:00,87.7,73.1,30.12,ESE,118,1.0,2.0,62,0.00,,BKN150,0.00,VWS V14.01,2013-07-06 21:56:00,
2013-07-06 18:06:00,87.6,73.5,30.12,SE,127,1.0,4.0,63,0.00,,BKN150,0.00,VWS V14.01,2013-07-06 22:06:00,
2013-07-06 18:11:00,87.7,74.0,30.11,ESE,113,2.0,3.0,64,0.00,,BKN150,0.00,VWS V14.01,2013-07-06 22:11:00,
2013-07-06 18:16:00,87.9,74.2,30.11,SE,145,0.0,4.0,64,0.00,,BKN150,0.00,VWS V14.01,2013-07-06 22:16:00,
2013-07-06 18:21:00,87.9,73.3,30.11,ESE,118,1.0,3.0,62,0.00,,BKN150,0.00,VWS V14.01,2013-07-06 22:21:00,
2013-07-06 18:36:00,86.4,73.2,30.11,ESE,120,0.0,2.0,65,0.00,,BKN150,0.00,VWS V14.01,2013-07-06 22:36:00,
2013-07-06 18:41:00,86.1,73.0,30.11,East,90,3.0,5.0,65,0.00,,BKN150,0.00,VWS V14.01,2013-07-06 22:41:00,
2013-07-06 18:46:00,85.9,73.7,30.11,South,177,1.0,3.0,67,0.00,,BKN150,0.00,VWS V14.01,2013-07-06 22:46:00,
2013-07-06 18:56:00,85.9,73.7,30.11,ESE,111,2.0,2.0,67,0.00,,BKN150,0.00,VWS V14.01,2013-07-06 22:56:00,
2013-07-06 19:21:00,86.1,74.8,30.11,East,99,3.0,3.0,69,0.00,,SCT150,0.00,VWS V14.01,2013-07-06 23:21:00,
2013-07-06 19:26:00,85.7,74.8,30.11,East,96,3.0,4.0,70,0.00,,SCT150,0.00,VWS V14.01,2013-07-06 23:26:00,
2013-07-06 19:36:00,85.2,74.7,30.11,SW,214,0.0,3.0,71,0.00,,SCT150,0.00,VWS V14.01,2013-07-06 23:36:00,
2013-07-06 19:41:00,85.0,74.6,30.12,East,101,1.0,5.0,71,0.00,,SCT150,0.00,VWS V14.01,2013-07-06 23:41:00,
2013-07-06 19:56:00,84.1,74.5,30.12,ESE,107,0.0,5.0,73,0.00,,SCT150,0.00,VWS V14.01,2013-07-06 23:56:00,
2013-07-06 20:06:00,83.6,74.4,30.12,ESE,114,1.0,6.0,74,0.00,,SCT150,0.00,VWS V14.01,2013-07-07 00:06:00,
2013-07-06 20:11:00,83.3,74.6,30.12,SE,144,1.0,4.0,75,0.00,,SCT150,0.00,VWS V14.01,2013-07-07 00:11:00,
2013-07-06 20:26:00,82.5,74.6,30.13,East,101,1.0,3.0,77,0.00,,SCT150,0.00,VWS V14.01,2013-07-07 00:26:00,
2013-07-06 20:46:00,81.7,74.2,30.12,SE,125,0.0,2.0,78,0.00,,SCT150,0.00,VWS V14.01,2013-07-07 00:46:00,
2013-07-06 20:56:00,81.3,74.2,30.13,ESE,112,0.0,1.0,79,0.00,,SCT150,0.00,VWS V14.01,2013-07-07 00:56:00,
2013-07-06 21:11:00,80.7,74.0,30.14,ESE,122,2.0,2.0,80,0.00,,BKN150,0.00,VWS V14.01,2013-07-07 01:11:00,
2013-07-06 21:16:00,80.6,73.9,30.14,ESE,114,1.0,2.0,80,0.00,,BKN150,0.00,VWS V14.01,2013-07-07 01:16:00,
2013-07-06 21:21:00,80.5,73.8,30.14,ESE,109,0.0,3.0,80,0.00,,BKN150,0.00,VWS V14.01,2013-07-07 01:21:00,
2013-07-06 21:51:00,80.4,73.7,30.16,SE,131,1.0,2.0,80,0.00,,BKN150,0.00,VWS V14.01,2013-07-07 01:51:00,
2013-07-06 21:56:00,80.2,73.8,30.16,ESE,110,0.0,2.0,81,0.00,,BKN150,0.00,VWS V14.01,2013-07-07 01:56:00,
2013-07-06 22:01:00,80.2,73.8,30.17,East,100,1.0,1.0,81,0.00,,BKN150,0.00,VWS V14.01,2013-07-07 02:01:00,
2013-07-06 22:11:00,79.9,73.2,30.17,ESE,113,0.0,2.0,80,0.00,,BKN150,0.00,VWS V14.01,2013-07-07 02:11:00,
2013-07-06 22:16:00,79.8,73.1,30.17,SE,133,0.0,1.0,80,0.00,,BKN150,0.00,VWS V14.01,2013-07-07 02:16:00,
2013-07-06 22:21:00,79.7,73.0,30.17,SE,134,0.0,1.0,80,0.00,,BKN150,0.00,VWS V14.01,2013-07-07 02:21:00,
2013-07-06 22:26:00,79.6,72.9,30.18,SE,139,0.0,1.0,80,0.00,,BKN150,0.00,VWS V14.01,2013-07-07 02:26:00,
2013-07-06 22:31:00,79.4,72.7,30.18,WSW,240,0.0,2.0,80,0.00,,BKN150,0.00,VWS V14.01,2013-07-07 02:31:00,
2013-07-06 22:36:00,79.3,72.6,30.18,East,93,0.0,1.0,80,0.00,,BKN150,0.00,VWS V14.01,2013-07-07 02:36:00,
2013-07-06 22:41:00,79.2,72.5,30.18,East,93,0.0,1.0,80,0.00,,BKN150,0.00,VWS V14.01,2013-07-07 02:41:00,
2013-07-06 22:46:00,79.1,72.4,30.18,East,94,0.0,0.0,80,0.00,,BKN150,0.00,VWS V14.01,2013-07-07 02:46:00,
2013-07-06 22:51:00,79.0,72.7,30.18,SE,142,0.0,0.0,81,0.00,,BKN150,0.00,VWS V14.01,2013-07-07 02:51:00,
2013-07-06 22:56:00,78.9,72.2,30.18,SW,228,0.0,2.0,80,0.00,,BKN150,0.00,VWS V14.01,2013-07-07 02:56:00,
2013-07-06 23:11:00,79.2,71.8,30.18,SSE,160,0.0,4.0,78,0.00,,SCT150,0.00,VWS V14.01,2013-07-07 03:11:00,
2013-07-06 23:31:00,78.8,71.4,30.18,SSW,205,0.0,2.0,78,0.00,,SCT150,0.00,VWS V14.01,2013-07-07 03:31:00,
2013-07-06 23:51:00,78.1,71.4,30.18,SE,126,0.0,1.0,80,0.00,,SCT150,0.00,VWS V14.01,2013-07-07 03:51:00,
2013-07-06 23:56:00,77.8,71.1,30.18,SE,125,0.0,0.0,80,0.00,,SCT150,0.00,VWS V14.01,2013-07-07 03:56:00,